Miscellaneous Local Product
Issued by NWS North Platte, NE

Home | Current Version | Previous Version | Text Only | Print | Product List | Glossary On
Versions: 1 2 3 4 5 6 7 8 9 10 11 12 13 14 15 16 17 18 19 20 21 22 23 24 25 26 27 28 29 30 31 32 33 34 35 36 37 38 39 40 41 42 43 44 45 46 47 48 49 50
000
AXUS43 KLBF 210310
MISLBF


WESTERN AND NORTH CENTRAL NEBRASKA HOURLY WEATHER ROUNDUP
NATIONAL WEATHER SERVICE NORTH PLATTE NE
900 PM CST TUE FEB 20 2018

NOTE: "FAIR" INDICATES FEW OR NO CLOUDS BELOW 12,000 FEET WITH NO
SIGNIFICANT WEATHER AND/OR OBSTRUCTIONS TO VISIBILITY.

NOTE: STATIONS NOT REPORTING VARIABLES SUCH AS SKY/WEATHER OR
PRESSURE ARE PROVIDED BY RAWS AND APRS NETWORKS AND ARE NOT UNDER
NATIONAL WEATHER SERVICE QUALITY CONTROL.

...OBSERVATIONS IN AND NEAR THE EASTERN PANHANDLE OF NEBRASKA...

CITY           SKY/WX    TMP DP  RH WIND       PRES   REMARKS
PINE RIDGE     CLEAR    -13 -17  82 CALM      30.22R
GORDON         FAIR     -13 -17  82 CALM      30.20S
CHADRON        CLEAR     -7 -15  68 S8        30.24R WCI -23
ALLIANCE       CLEAR    -15 -19  82 SW7       30.19R WCI -31
SIDNEY         CLEAR    -11 -17  75 SW5       30.19R WCI -23
$$

...OBSERVATIONS IN NORTHERN NEBRASKA AND FAR SOUTHERN SOUTH DAKOTA...

CITY           SKY/WX    TMP DP  RH WIND       PRES   REMARKS
WINNER         FAIR      -1  -8  72 SW6       30.35R WCI -13
VALENTINE      CLEAR     -8 -13  78 W6        30.31R WCI -21
AINSWORTH      CLEAR     -3  -8  79 W6        30.30S WCI -15
O`NEILL        CLEAR      1  -4  79 NW8       30.35R WCI -12
THEDFORD       CLEAR     -5 -10  81 CALM      30.29S
BROKEN BOW     CLEAR      2  -5  72 CALM      30.31R
ORD            CLEAR      3  -2  79 NW3       30.34R
ALBION         PTCLDY     7   1  76 N9        30.37R WCI  -7
$$

...OBSERVATIONS IN SOUTHWEST NEBRASKA AND FAR NORTHEAST COLORADO...

CITY           SKY/WX    TMP DP  RH WIND       PRES   REMARKS
WRAY           FAIR       7   0  72 CALM      30.28R
HOLYOKE        FAIR       5  -4  66 CALM      30.26R
IMPERIAL       CLEAR      4  -2  76 W5        30.29R WCI  -5
OGALLALA       PTCLDY     1  -4  80 W3        30.29R
NORTH PLATTE   CLEAR      1  -8  66 W3        30.31R
MCCOOK         CLEAR      9   2  73 N5        30.34R WCI   1
LEXINGTON      CLEAR     10   2  72 N6        30.33R WCI   0
GOTHENBURG       N/A      7  -1  70 NW3         N/A
CALLAWAY         N/A      0  -4  80 NW5         N/A  WCI -10
$$

...OBSERVATIONS IN CENTRAL LINCOLN COUNTY AREA...

CITY           SKY/WX    TMP DP  RH WIND       PRES   REMARKS
N.P. AIRPORT   CLEAR      1  -8  66 W3        30.31R
$$

...OBSERVATIONS ACROSS THE ROCKIES AND WESTERN HIGH PLAINS...

CITY           SKY/WX    TMP DP  RH WIND       PRES   REMARKS
RAPID CITY     CLEAR    -10 -14  82 CALM      30.20R
SCOTTSBLUFF    CLEAR     -5 -10  79 E5        30.19R WCI -16
CHEYENNE       CLEAR      5  -1  76 SW7       30.04R WCI  -7
DENVER         PTCLDY     3  -2  79 SE9       30.10R WCI -12
BERTHOUD PASS  FAIR      -8 -18  59 W15G21    29.77R WCI -29
COPPER MTN     PTCLDY     1  -9  60 S10       29.81R WCI -14
MONARCH PASS   PTCLDY     0  -6  78 SW18      29.92S WCI -22
ASPEN          LGT SNOW  12   6  77 S6        29.99R WCI   3
LARAMIE        CLEAR     -1  -8  72 CALM      29.97R
CASPER         CLEAR     -1  -9  68 SW13      30.03R WCI -19
$$

...OBSERVATIONS ACROSS THE NORTHERN PLAINS...

CITY           SKY/WX    TMP DP  RH WIND       PRES   REMARKS
BISMARCK       CLEAR      2  -6  69 SW6       30.25R WCI  -9
FARGO          FAIR       5  -2  72 W13       30.26R WCI -12
PIERRE         CLEAR      0  -6  76 W8        30.33R WCI -14
SIOUX FALLS    CLOUDY     4  -2  76 W7        30.34R WCI  -8
$$

...OBSERVATIONS ACROSS THE CENTRAL AND SOUTHERN PLAINS...

CITY           SKY/WX    TMP DP  RH WIND       PRES   REMARKS
OMAHA          CLOUDY    14   7  73 NW16G25   30.38R WCI  -2
GRAND ISLAND   CLEAR     11   2  67 N10       30.36R WCI  -3
KANSAS CITY    CLOUDY    20  15  81 N15       30.29R WCI   6
WICHITA        CLOUDY    24  17  74 N14       30.30R WCI  12
DODGE CITY     CLOUDY    17   1  49 N12       30.25R WCI   4
OKLAHOMA CITY  CLOUDY    26  22  84 N23G30    30.19R WCI  11
DALLAS         LGT RAIN  42  39  89 N20       30.07R
AMARILLO       CLEAR     24   8  50 NE9       30.17R WCI  14
$$




USA.gov is the U.S. government's official web portal to all federal, state and local government web resources and services.